ARIRANG-5 (KOMPSAT-5)

Last updated on Fri Oct 04 2024 00:02:25 GMT+0000 (Coordinated Universal Time)

1 39227U 13042A 24277.51223317 .00007383 00000+0 53207-3 0 9999 2 39227 97.6205 101.9065 0003553 98.3651 261.7978 15.04449531610388
UTC large
Height (km)
Speed (km/s)
/
Latitude / Longitude
Inclination (degrees)
Orbital Period (minutes)
Azimuth
Elevation
Range (km)
Doppler Factor

Next 0 passes for location: London (51.5072 / 0.1276)

Sorry there are no passes over London.